ARABSAT-5A

Last updated on Tue Sep 22 2026 00:03:11 GMT+0000 (Coordinated Universal Time)

1 36745U 10032B 26264.13876247 .00000150 00000+0 00000+0 0 9993 2 36745 0.2793 77.2410 0004010 100.0341 263.2066 1.00273696 59602
UTC large
Height (km)
Speed (km/s)
/
Latitude / Longitude
Inclination (degrees)
Orbital Period (minutes)
Azimuth
Elevation
Range (km)
Doppler Factor

Next 0 passes for location: London (51.5072 / 0.1276)

No passes found over London.
ARABSAT-5A